Previsão horária em Barranco de Loba

Hoje, 22 Outubro, Quinta-feira

Tempo Temperatura Precipitação Vento Pressão Humidade
00:00 +24°C° 0.3 mm 0 m/s 755 mmHg 98%
01:00 +24°C° 0.3 mm 0 m/s 754 mmHg 98%
02:00 +24°C° 0.4 mm 0 m/s 754 mmHg 98%
03:00 +23°C° 0.4 mm 0 m/s 754 mmHg 98%
04:00 +23°C° 0.4 mm 0 m/s 754 mmHg 98%
05:00 +24°C° 0.1 mm 0 m/s 755 mmHg 98%
06:00 +24°C° 0.1 mm 0 m/s 755 mmHg 97%
07:00 +24°C° 0.1 mm 0 m/s 756 mmHg 97%
08:00 +26°C° 0.2 mm 0 m/s 756 mmHg 90%
09:00 +27°C° 0.2 mm 0 m/s 756 mmHg 83%
10:00 +29°C° 0.2 mm 0 m/s 756 mmHg 76%
11:00 +30°C° 0 mm 0 m/s 755 mmHg 71%
12:00 +31°C° 0 mm 0 m/s 754 mmHg 65%
13:00 +32°C° 0 mm 0 m/s 754 mmHg 60%
14:00 +34°C° 0 mm 1 m/s 753 mmHg 62%
15:00 +33°C° 0 mm 1 m/s 753 mmHg 65%
16:00 +33°C° 0 mm 1 m/s 752 mmHg 67%
17:00 +31°C° 0.1 mm 1 m/s 753 mmHg 74%
18:00 +30°C° 0.1 mm 1 m/s 753 mmHg 82%
19:00 +28°C° 0.1 mm 1 m/s 754 mmHg 89%
20:00 +28°C° 0.2 mm 1 m/s 755 mmHg 90%
21:00 +27°C° 0.2 mm 1 m/s 755 mmHg 92%
22:00 +27°C° 0.2 mm 1 m/s 756 mmHg 94%
23:00 +27°C° 0 mm 1 m/s 755 mmHg 94%

Amanhã, 23 Outubro, Sexta-feira

Tempo Temperatura Precipitação Vento Pressão Humidade
00:00 +25°C° 0 mm 0 m/s 755 mmHg 95%
01:00 +25°C° 0 mm 0 m/s 755 mmHg 95%
02:00 +24°C° 0.4 mm 0 m/s 755 mmHg 96%
03:00 +24°C° 0.4 mm 0 m/s 754 mmHg 97%
04:00 +24°C° 0.4 mm 0 m/s 754 mmHg 98%
05:00 +24°C° 0.2 mm 0 m/s 755 mmHg 97%
06:00 +25°C° 0.2 mm 0 m/s 755 mmHg 96%
07:00 +25°C° 0.2 mm 0 m/s 756 mmHg 95%
08:00 +29°C° 0.1 mm 1 m/s 756 mmHg 88%
09:00 +30°C° 0.1 mm 1 m/s 756 mmHg 81%
10:00 +32°C° 0.1 mm 1 m/s 756 mmHg 73%
11:00 +33°C° 0.1 mm 1 m/s 755 mmHg 69%
12:00 +34°C° 0.1 mm 1 m/s 754 mmHg 65%
13:00 +35°C° 0.1 mm 1 m/s 753 mmHg 61%
14:00 +34°C° 0.7 mm 1 m/s 753 mmHg 68%
15:00 +33°C° 0.7 mm 1 m/s 752 mmHg 75%
16:00 +32°C° 0.7 mm 1 m/s 752 mmHg 82%
17:00 +30°C° 2.9 mm 1 m/s 752 mmHg 86%
18:00 +29°C° 2.9 mm 1 m/s 753 mmHg 91%
19:00 +27°C° 2.9 mm 1 m/s 753 mmHg 95%
20:00 +27°C° 0.6 mm 1 m/s 754 mmHg 96%
21:00 +27°C° 0.6 mm 1 m/s 755 mmHg 97%
22:00 +26°C° 0.6 mm 1 m/s 755 mmHg 98%
23:00 +26°C° 0.3 mm 1 m/s 755 mmHg 98%

Depois de amanhã, 24 Outubro, Sábado

Tempo Temperatura Precipitação Vento Pressão Humidade
00:00 +24°C° 0.3 mm 0 m/s 755 mmHg 98%
01:00 +24°C° 0.3 mm 0 m/s 755 mmHg 98%
02:00 +24°C° 0.1 mm 0 m/s 755 mmHg 98%
03:00 +24°C° 0.1 mm 0 m/s 755 mmHg 98%
04:00 +24°C° 0.1 mm 0 m/s 755 mmHg 98%
05:00 +24°C° 0 mm 0 m/s 755 mmHg 98%
06:00 +24°C° 0 mm 0 m/s 755 mmHg 98%
07:00 +24°C° 0 mm 0 m/s 756 mmHg 97%
08:00 +28°C° 0.2 mm 1 m/s 756 mmHg 90%
09:00 +29°C° 0.2 mm 1 m/s 756 mmHg 83%
10:00 +31°C° 0.2 mm 1 m/s 756 mmHg 76%
11:00 +31°C° 1.7 mm 1 m/s 755 mmHg 79%
12:00 +31°C° 1.7 mm 1 m/s 754 mmHg 81%
13:00 +31°C° 1.7 mm 1 m/s 753 mmHg 84%
14:00 +31°C° 1.5 mm 1 m/s 753 mmHg 86%
15:00 +28°C° 1.5 mm 0 m/s 753 mmHg 88%
16:00 +28°C° 1.5 mm 0 m/s 752 mmHg 90%
17:00 +29°C° 1.5 mm 1 m/s 753 mmHg 91%
18:00 +28°C° 1.5 mm 1 m/s 753 mmHg 93%
19:00 +26°C° 1.5 mm 1 m/s 754 mmHg 95%
20:00 +26°C° 0.8 mm 1 m/s 754 mmHg 96%
21:00 +26°C° 0.8 mm 1 m/s 755 mmHg 96%
22:00 +25°C° 0.8 mm 1 m/s 755 mmHg 96%
23:00 +23°C° 0.7 mm 0 m/s 755 mmHg 97%

, 25 Outubro, Domingo

Tempo Temperatura Precipitação Vento Pressão Humidade
00:00 +23°C° 0.7 mm 0 m/s 755 mmHg 97%
01:00 +23°C° 0.7 mm 0 m/s 755 mmHg 97%
02:00 +23°C° 0.2 mm 0 m/s 755 mmHg 97%
03:00 +23°C° 0.2 mm 0 m/s 755 mmHg 97%
04:00 +22°C° 0.2 mm 0 m/s 755 mmHg 97%
05:00 +23°C° 0.2 mm 0 m/s 756 mmHg 97%
06:00 +23°C° 0.2 mm 0 m/s 756 mmHg 96%
07:00 +23°C° 0.2 mm 0 m/s 757 mmHg 96%
08:00 +25°C° 0.2 mm 1 m/s 757 mmHg 95%
09:00 +26°C° 0.2 mm 1 m/s 757 mmHg 95%
10:00 +26°C° 0.2 mm 1 m/s 758 mmHg 94%
11:00 +27°C° 0 mm 1 m/s 757 mmHg 88%
12:00 +28°C° 0 mm 1 m/s 756 mmHg 82%
13:00 +29°C° 0 mm 1 m/s 755 mmHg 76%
14:00 +29°C° 0 mm 1 m/s 755 mmHg 77%
15:00 +29°C° 0 mm 1 m/s 755 mmHg 77%
16:00 +29°C° 0 mm 1 m/s 754 mmHg 78%
17:00 +27°C° 0 mm 1 m/s 754 mmHg 82%
18:00 +26°C° 0 mm 1 m/s 755 mmHg 87%
19:00 +23°C° 0 mm 0 m/s 755 mmHg 92%
20:00 +23°C° 0 mm 0 m/s 756 mmHg 91%
21:00 +23°C° 0 mm 0 m/s 756 mmHg 91%
22:00 +22°C° 0 mm 0 m/s 756 mmHg 91%
23:00 +22°C° 0 mm 0 m/s 756 mmHg 92%

25 Outubro, Domingo

Tempo Temperatura Precipitação Vento Pressão Humidade
00:00 +23°C° 0.7 mm 0 m/s 755 mmHg 97%
01:00 +23°C° 0.7 mm 0 m/s 755 mmHg 97%
02:00 +23°C° 0.2 mm 0 m/s 755 mmHg 97%
03:00 +23°C° 0.2 mm 0 m/s 755 mmHg 97%
04:00 +22°C° 0.2 mm 0 m/s 755 mmHg 97%
05:00 +23°C° 0.2 mm 0 m/s 756 mmHg 97%
06:00 +23°C° 0.2 mm 0 m/s 756 mmHg 96%
07:00 +23°C° 0.2 mm 0 m/s 757 mmHg 96%
08:00 +25°C° 0.2 mm 1 m/s 757 mmHg 95%
09:00 +26°C° 0.2 mm 1 m/s 757 mmHg 95%
10:00 +26°C° 0.2 mm 1 m/s 758 mmHg 94%
11:00 +27°C° 0 mm 1 m/s 757 mmHg 88%
12:00 +28°C° 0 mm 1 m/s 756 mmHg 82%
13:00 +29°C° 0 mm 1 m/s 755 mmHg 76%
14:00 +29°C° 0 mm 1 m/s 755 mmHg 77%
15:00 +29°C° 0 mm 1 m/s 755 mmHg 77%
16:00 +29°C° 0 mm 1 m/s 754 mmHg 78%
17:00 +27°C° 0 mm 1 m/s 754 mmHg 82%
18:00 +26°C° 0 mm 1 m/s 755 mmHg 87%
19:00 +23°C° 0 mm 0 m/s 755 mmHg 92%
20:00 +23°C° 0 mm 0 m/s 756 mmHg 91%
21:00 +23°C° 0 mm 0 m/s 756 mmHg 91%
22:00 +22°C° 0 mm 0 m/s 756 mmHg 91%
23:00 +22°C° 0 mm 0 m/s 756 mmHg 92%

26 Outubro, Segunda-feira

Tempo Temperatura Precipitação Vento Pressão Humidade
00:00 +22°C° 0 mm 0 m/s 756 mmHg 93%
01:00 +22°C° 0 mm 0 m/s 755 mmHg 93%
02:00 +22°C° 0 mm 0 m/s 755 mmHg 94%
03:00 +22°C° 0 mm 0 m/s 755 mmHg 95%
04:00 +22°C° 0 mm 0 m/s 755 mmHg 95%
05:00 +22°C° 0 mm 0 m/s 756 mmHg 93%
06:00 +25°C° 0 mm 1 m/s 756 mmHg 92%
07:00 +25°C° 0 mm 1 m/s 756 mmHg 90%
08:00 +28°C° 0 mm 1 m/s 756 mmHg 80%
09:00 +28°C° 0 mm 0 m/s 756 mmHg 71%
10:00 +31°C° 0 mm 0 m/s 756 mmHg 61%
11:00 +31°C° 0 mm 0 m/s 755 mmHg 59%
12:00 +32°C° 0 mm 0 m/s 754 mmHg 56%
13:00 +33°C° 0 mm 0 m/s 753 mmHg 54%
14:00 +34°C° 0 mm 1 m/s 753 mmHg 58%
15:00 +33°C° 0 mm 1 m/s 753 mmHg 63%
16:00 +32°C° 0 mm 1 m/s 752 mmHg 68%
17:00 +31°C° 0.1 mm 1 m/s 753 mmHg 75%
18:00 +29°C° 0.1 mm 1 m/s 753 mmHg 82%
19:00 +25°C° 0.1 mm 0 m/s 754 mmHg 90%
20:00 +27°C° 0.2 mm 1 m/s 754 mmHg 91%
21:00 +27°C° 0.2 mm 1 m/s 755 mmHg 93%
22:00 +26°C° 0.2 mm 1 m/s 755 mmHg 95%
23:00 +24°C° 0 mm 0 m/s 755 mmHg 96%

27 Outubro, Terça-feira

Tempo Temperatura Precipitação Vento Pressão Humidade
00:00 +23°C° 0 mm 0 m/s 754 mmHg 97%
01:00 +23°C° 0 mm 0 m/s 754 mmHg 98%
02:00 +23°C° 0 mm 0 m/s 754 mmHg 98%
03:00 +23°C° 0 mm 0 m/s 754 mmHg 98%
04:00 +23°C° 0 mm 0 m/s 754 mmHg 98%
05:00 +23°C° 0 mm 0 m/s 754 mmHg 97%
06:00 +24°C° 0 mm 0 m/s 755 mmHg 96%
07:00 +24°C° 0 mm 0 m/s 755 mmHg 94%
08:00 +26°C° 0.6 mm 0 m/s 755 mmHg 90%
09:00 +27°C° 0.6 mm 0 m/s 755 mmHg 86%
10:00 +29°C° 0.6 mm 0 m/s 755 mmHg 82%
11:00 +32°C° 0.3 mm 1 m/s 754 mmHg 75%
12:00 +33°C° 0.3 mm 1 m/s 753 mmHg 69%
13:00 +34°C° 0.3 mm 1 m/s 752 mmHg 62%
14:00 +33°C° 0.6 mm 1 m/s 752 mmHg 69%
15:00 +32°C° 0.6 mm 1 m/s 751 mmHg 75%
16:00 +32°C° 0.6 mm 1 m/s 751 mmHg 82%
17:00 +30°C° 1.7 mm 1 m/s 752 mmHg 86%
18:00 +28°C° 1.7 mm 1 m/s 752 mmHg 90%
19:00 +25°C° 1.7 mm 0 m/s 753 mmHg 94%
20:00 +24°C° 0.8 mm 0 m/s 753 mmHg 95%
21:00 +26°C° 0.8 mm 1 m/s 754 mmHg 97%
22:00 +26°C° 0.8 mm 1 m/s 754 mmHg 98%
23:00 +24°C° 0.3 mm 0 m/s 754 mmHg 98%
Mostrar mais